Location: Burzi?i
(45.0869°N, 16.0577°E)
Time: 11:51:36
(UTC+00:00)

BREEZE-M R/B - Pass Details

Date: 29 October 2020
Orbit: 309 x 4522 km, 49.7° (Epoch: 27 November)

Event Time Altitude Azimuth Distance (km) Brightness Sun altitude
Rises 17:47:09 0° 293° (WNW) 2,628 7.5 -21.6°
Reaches altitude 10° 17:48:47 10° 295° (WNW) 1,962 6.6 -21.9°
Maximum altitude 17:53:05 73° 21° (NNE) 967 3.8 -22.7°
Enters shadow 17:55:30 43° 94° (E) 1,545 4.5 -23.1°
